STARLINK-11180, 60185

Orbit data source: Space-Track

STARLINK-11180, 60185 is a payload satellite owned by SpaceX/Seattle (US) in LEO that was launched on Wed, 03 Jul 2024 UTC via an FALCON 9 launch vehicle from the Air Force Eastern Test Range (AFETR). Payload-class satellites include a variety of spacecraft equipped with specific instruments for various scientific and technological missions. These include communications satellites like Starlink; space stations such as the ISS; scientific satellites like the Hubble; Earth observation satellites from companies like Planet Labs, Umbra, and HawkEye 360; GPS; miniature CubeSats for education and research; and military/defense satellites.

Loading next visibility...
Identifier
60185, 2024-124C
Orbit
LEO
Last TLE update
7 hours ago
Origin
Manufacturer
SpaceX/Seattle
Mission
Operational Commercial Communications
Bus & Motor
STARLINK V2M, Unknown motor
Mass
730 kg wet, ~700 kg dry
Launch date (UTC)
2024-07-03 (1 year ago)
Launch vehicle
FALCON 9
Launch site
Air Force Eastern Test Range (AFETR)
Object type
Payload
Rocket body
Debris
Shape & HBR
Box + 2 Pan, 29 m
Radar Cross Section
36.964 m², Large (>1 m²)

Expand to show TLE details & history

TLE from 7 hours ago
0 STARLINK-11180
1 60185U 24124C   25182.11247521 -.00001015  00000-0 -35325-5 0  9996
2 60185  53.1580 321.2512 0000302   5.0001 355.1019 15.69709798 58212
Epoch: 2025-07-01T02:41Z
TLE epoch observation values (Epoch: 2025-07-01T02:41:57.858Z)
Latitude
-0.00007°
Longitude
1.34747°
Altitude
360.439 km
Speed
7.694 km/s
True Right ascension
21h 25m 00s
True Declination
0° 00' 00"
Sunlit
Object was in full shadow at epoch
Visualization orbit readout
Latitude
-50.86128°
Longitude
-66.43533°
Altitude
377.27 km
Speed
7.683 km/s
Apparent Right ascension
12h 55m 00s
Apparent Declination
-59° 55' 42"
Sunlit
Object is in full shadow
Visualization observer readout
Local Sidereal Time
21:39:35
Azimuth
219.844° SW
Elevation
-53.916°
Doppler factor
1
Orbital elements
Apogee altitude
360.192 km
Perigee altitude
359.785 km
Semi-major axis
6,738.125 km
Eccentricity
0.00003
Inclination
53.158°
RAAN
321.2512°
Arg. of periapsis
5.0001°
True anomaly
Unknown
Mean anomaly
355.1019°
Eccentric anomaly
Unknown
Mean motion
3.92405 °/min
Orbital period
91.74 mins
BSTAR
-0.0000035325
Loading maneuver chart data...
Loading SW <> Apogee altitude chart data...
Loading historical data...
Loading historical data...
Loading historical data...
Loading historical data...
Loading historical data...
Loading historical data...
Loading historical data...

STARLINK-11180 Visibility forecast

Observer location: undefined°, undefined°

Span
Click to sort rows by Start time (UTC) header in descending order
Start Az.
Max El. time (UTC)
Max El. Az.
Max El.
End time (UTC)
End Az.
5 mins2025-07-01 12:03:12.270Z220.838° SW2025-07-01 12:05:12.270Z158.345° S43.399°2025-07-01 12:08:12.270Z53.721° ENE
4 mins2025-07-01 18:28:12.270Z330.102° NNW2025-07-01 18:30:12.270Z49.497° ENE34.137°2025-07-01 18:32:12.270Z105.673° ESE
|